Stations météo

réclame
Mon MeteoGroup
Lille, France (7015): Température de l'air & dewpoint: 13.12.2018 15:00:00 - 19.12.2018 15:00:00 (CET)Lille, France (7015): Température de l'air 5cm: 13.12.2018 15:00:00 - 19.12.2018 15:00:00 (CET)Lille, France (7015): Température de l'air -20cm & Température de l'air -100cm: 13.12.2018 15:00:00 - 19.12.2018 15:00:00 (CET)Lille, France (7015): Vitesse du vent & gusts: 13.12.2018 15:00:00 - 19.12.2018 15:00:00 (CET)Lille, France (7015): Direction du vent: 13.12.2018 15:00:00 - 19.12.2018 15:00:00 (CET)Lille, France (7015): reduced air pressure: 13.12.2018 15:00:00 - 19.12.2018 15:00:00 (CET)Lille, France (7015): visibility: 13.12.2018 15:00:00 - 19.12.2018 15:00:00 (CET)Lille, France (7015): Quantités de précipitations: 13.12.2018 15:00:00 - 19.12.2018 15:00:00 (CET)
Date & Time tt [°C] td [°C] tt 5cm [°C] tt -20cm [°C] tt -100cm [°C] ff [km/h] ff [knt] fx [km/h] fx [knt] dd ppp [hPa] vv [km] rr [mm]
19.12.2018 15:00:00 - - - - - - - - - - - - -
19.12.2018 14:00:00 10,6 6,7 9,9 6,7 8,7 27 15 42 23 SSW 1009,8 33 0,0
19.12.2018 13:00:00 9,6 6,9 9,7 6,4 8,7 25 13 42 23 S 1010,2 39 0,0
19.12.2018 12:00:00 9,3 6,9 8,5 6,2 8,7 28 15 44 24 S 1010,2 27 0,0
19.12.2018 11:00:00 8,5 6,8 7,9 6,1 8,7 26 14 39 21 S 1010,6 33 0,0
19.12.2018 10:00:00 7,8 6,4 7,0 6,0 8,7 29 15 48 26 S 1010,2 31 0,0
19.12.2018 09:00:00 7,2 6,0 6,2 6,0 8,8 26 14 37 20 S 1009,8 41 0,0
19.12.2018 08:00:00 7,1 5,6 6,4 6,0 8,7 21 12 40 21 S 1009,6 47 0,0
19.12.2018 07:00:00 6,9 5,7 5,6 6,0 8,8 22 12 34 19 S 1009,5 40 0,0
19.12.2018 06:00:00 6,3 5,3 5,5 6,1 8,7 16 8 25 13 S 1009,4 28 0,0
19.12.2018 05:00:00 6,7 5,5 6,0 6,1 8,7 16 9 32 17 S 1009,4 25 0,0
19.12.2018 04:00:00 7,2 6,0 6,5 6,1 8,7 19 10 37 20 SSW 1009,1 23 0,0
19.12.2018 03:00:00 6,8 5,6 5,7 6,0 8,8 23 13 38 21 S 1008,5 25 0,2
19.12.2018 02:00:00 6,3 4,9 5,4 6,0 8,8 22 12 38 21 S 1008,0 12 0,6
19.12.2018 01:00:00 6,3 4,1 5,1 6,0 8,8 22 12 38 21 S 1008,4 15 0,8
19.12.2018 00:00:00 6,5 3,3 5,1 6,0 8,8 23 12 46 25 S 1008,6 25 0,2
18.12.2018 23:00:00 6,7 2,2 6,2 6,0 8,8 26 14 39 21 SSE 1008,5 60 0,0
18.12.2018 22:00:00 6,6 2,3 6,3 6,1 8,7 23 13 45 25 SSE 1009,2 59 0,0
18.12.2018 21:00:00 7,0 2,3 6,7 6,1 8,7 31 17 51 28 SSE 1009,2 60 0,0
18.12.2018 20:00:00 7,0 2,7 6,7 6,2 8,8 26 14 44 24 SE 1010,0 55 0,0
18.12.2018 19:00:00 7,0 2,9 6,5 6,3 8,8 26 14 44 24 SSE 1010,5 60 0,0
18.12.2018 18:00:00 6,9 3,0 6,6 6,4 8,8 29 16 48 26 SSE 1011,3 60 0,0
18.12.2018 17:00:00 7,1 3,3 6,9 6,4 8,8 28 15 46 25 SSE 1012,7 59 0,0
18.12.2018 16:00:00 7,7 3,4 7,5 6,5 8,8 29 15 48 26 SE 1013,1 59 0,0
18.12.2018 15:00:00 7,9 3,9 8,1 6,4 8,8 27 14 49 27 SSE 1014,3 29 0,0
18.12.2018 14:00:00 7,7 4,5 7,8 6,4 8,8 22 12 37 20 SSE 1015,6 30 0,0
18.12.2018 13:00:00 7,1 4,7 7,5 6,3 8,8 21 11 43 23 SSE 1016,8 26 0,0
18.12.2018 12:00:00 7,0 5,5 7,4 6,2 8,8 30 16 48 26 SSE 1018,0 13 0,0
18.12.2018 11:00:00 7,1 5,7 7,2 6,0 8,8 28 15 46 25 SSE 1019,2 16 0,0
18.12.2018 10:00:00 7,0 5,9 6,6 6,0 8,8 27 15 52 28 SSE 1019,5 13 0,0
18.12.2018 09:00:00 6,6 5,7 6,5 5,9 8,8 26 14 41 22 SSE 1019,9 12 0,0
18.12.2018 08:00:00 6,5 6,1 6,1 5,9 8,8 18 10 27 15 SSE 1020,6 5 0,0
18.12.2018 07:00:00 6,2 5,8 6,0 5,9 8,8 18 10 37 20 S 1021,0 4,8 0,0
18.12.2018 06:00:00 6,2 5,9 6,0 5,8 8,8 23 12 38 20 SSE 1020,9 3,1 0,0
18.12.2018 05:00:00 6,2 5,9 6,0 5,8 8,8 23 13 39 21 S 1022,4 3,4 0,0
18.12.2018 04:00:00 6,5 6,1 6,5 5,7 8,8 27 15 36 20 S 1022,5 4,5 0,0
18.12.2018 03:00:00 6,7 6,3 6,6 5,6 8,8 22 12 35 19 S 1022,8 4,1 0,0
18.12.2018 02:00:00 6,7 6,1 6,4 5,5 8,9 24 13 35 19 S 1022,7 4,3 0,0
18.12.2018 01:00:00 6,4 6,0 6,0 5,4 8,9 18 10 32 17 S 1023,3 3,9 0,0
18.12.2018 00:00:00 6,1 5,7 5,4 5,4 8,8 16 9 32 18 S 1023,7 4,5 0,0
17.12.2018 23:00:00 5,7 5,3 4,9 5,4 8,8 22 12 35 19 S 1024,0 4,9 0,0
17.12.2018 22:00:00 5,4 4,8 4,8 5,5 8,9 21 11 29 16 S 1024,3 7 0,0
17.12.2018 21:00:00 5,8 4,9 5,0 5,6 8,9 16 9 24 13 S 1024,1 20 0,0
17.12.2018 20:00:00 5,8 5,1 4,9 5,6 8,9 12 7 17 9 S 1023,6 15 0,0
17.12.2018 19:00:00 6,6 5,5 6,0 5,7 8,9 10 5 14 8 S 1023,2 10 0,0
17.12.2018 18:00:00 6,4 5,5 4,8 5,8 8,9 8 4 21 11 S 1022,9 16 0,0
17.12.2018 17:00:00 7,6 5,9 6,5 5,8 8,9 13 7 21 11 SSW 1022,3 23 0,0
17.12.2018 16:00:00 8,9 6,3 8,4 5,7 8,9 14 8 35 19 SW 1021,9 26 0,0
17.12.2018 15:00:00 9,8 6,9 9,5 5,5 8,9 20 11 37 20 SW 1021,2 20 0,0
17.12.2018 14:00:00 9,6 7,0 9,9 5,2 8,9 18 10 29 16 SW 1020,6 19 0,0
17.12.2018 13:00:00 9,4 6,5 9,5 4,9 8,9 18 10 28 15 SW 1020,0 16 0,0
17.12.2018 12:00:00 8,1 6,1 8,1 4,7 8,9 18 10 27 15 SW 1019,9 10 0,0
17.12.2018 11:00:00 6,8 5,6 6,1 4,7 8,9 16 9 26 14 SW 1019,4 9 0,0
17.12.2018 10:00:00 5,2 4,3 3,6 4,7 9,0 14 8 24 13 SSW 1018,3 14 0,0
17.12.2018 09:00:00 4,3 3,6 3,3 4,8 9,0 14 7 25 13 SSW 1017,4 15 0,0
17.12.2018 08:00:00 4,6 3,9 3,3 4,9 9,0 17 9 29 15 SW 1016,5 19 0,0
17.12.2018 07:00:00 4,3 3,6 3,4 5,0 9,0 18 10 28 15 SW 1015,0 17 0,0
17.12.2018 06:00:00 5,5 4,5 4,5 5,1 9,0 20 11 30 16 SW 1013,9 24 0,0
17.12.2018 05:00:00 5,7 5,0 4,8 5,2 9,0 19 10 33 18 SSW 1012,8 20 0,0
17.12.2018 04:00:00 6,5 5,8 5,9 5,1 9,0 18 10 26 14 SSW 1012,3 26 0,4
17.12.2018 03:00:00 6,4 6,0 6,1 5,0 9,0 18 10 32 18 S 1011,9 17 0,2
17.12.2018 02:00:00 6,3 6,0 6,0 4,9 9,1 18 10 25 14 S 1011,2 7 0,4
17.12.2018 01:00:00 6,1 6,0 5,8 4,9 9,1 13 7 29 16 S 1011,4 7 0,4
17.12.2018 00:00:00 5,8 5,8 5,4 4,8 9,1 15 8 26 14 SSE 1011,4 7 0,0
16.12.2018 23:00:00 5,4 5,4 4,9 4,7 9,1 13 7 26 14 SSE 1011,3 3,8 0,0
16.12.2018 22:00:00 4,9 4,9 4,3 4,6 9,1 16 8 24 13 SSE 1011,3 2,4 0,0
16.12.2018 21:00:00 4,4 4,4 3,9 4,5 9,1 10 5 23 12 SE 1011,3 1,2 0,0
16.12.2018 20:00:00 3,9 3,9 3,7 4,5 9,1 13 7 29 16 SSE 1011,3 1,0 0,0
16.12.2018 19:00:00 3,7 3,7 3,7 4,5 9,1 19 11 32 17 S 1011,0 0,8 0,0
16.12.2018 18:00:00 3,7 3,7 3,5 4,5 9,2 19 11 29 16 S 1011,0 1,0 0,0
16.12.2018 17:00:00 3,5 3,5 3,5 4,4 9,2 19 10 32 18 S 1011,0 1,3 0,0
16.12.2018 16:00:00 3,7 3,7 3,8 4,3 9,2 21 11 29 16 S 1010,8 0,9 0,0
16.12.2018 15:00:00 4,0 4,0 4,3 4,2 9,2 17 9 26 14 S 1010,5 0,6 0,0
16.12.2018 14:00:00 4,0 4,0 4,3 3,9 9,2 15 8 24 13 S 1010,6 0,7 0,0
16.12.2018 13:00:00 4,3 4,3 4,3 3,7 9,2 11 6 26 14 S 1010,6 1,1 0,0
16.12.2018 12:00:00 3,9 3,8 3,7 3,5 9,3 17 9 25 13 S 1010,6 0,5 0,0
16.12.2018 11:00:00 3,5 3,4 3,2 3,3 9,2 13 7 26 14 S 1010,8 0,6 0,0
16.12.2018 10:00:00 3,0 2,9 2,8 3,1 9,3 16 8 26 14 S 1010,3 1,5 0,0
16.12.2018 09:00:00 2,7 2,6 2,1 3,0 9,3 15 8 23 13 S 1010,3 0,6 0,0
16.12.2018 08:00:00 2,3 2,2 1,6 3,0 9,3 14 8 24 13 S 1009,7 3,1 0,0
16.12.2018 07:00:00 1,8 1,7 1,5 2,9 9,3 13 7 25 13 SSE 1009,4 3,5 0,2
16.12.2018 06:00:00 1,7 1,4 1,2 2,9 9,3 14 7 28 15 SSE 1009,7 2,5 0,0
16.12.2018 05:00:00 1,4 1,1 0,7 2,9 9,4 19 10 29 16 S 1009,4 2,6 0,0
16.12.2018 04:00:00 1,0 0,6 0,1 2,9 9,4 17 9 29 16 S 1009,3 3,7 0,0
16.12.2018 03:00:00 0,8 0,4 0,1 2,9 9,4 16 9 29 16 S 1009,5 5 0,0
16.12.2018 02:00:00 0,7 0,1 0,1 2,8 9,4 16 9 39 21 S 1009,4 6 0,0
16.12.2018 01:00:00 0,5 -0,1 0,1 2,8 9,4 21 12 44 24 SSE 1009,6 4,1 0,0
16.12.2018 00:00:00 0,4 -0,2 0,1 2,8 9,4 26 14 45 24 SSE 1010,0 1,2 0,0
15.12.2018 23:00:00 0,3 -0,4 0,1 2,8 9,4 28 15 61 33 SSE 1009,9 1,0 0,0
15.12.2018 22:00:00 0,4 -0,7 -0,1 2,8 9,4 29 16 58 32 SSE 1010,4 1,1 0,0
15.12.2018 21:00:00 0,2 -0,9 -0,2 2,8 9,4 32 17 61 33 SE 1010,7 1,5 0,0
15.12.2018 20:00:00 0,1 -1,2 -0,6 2,8 9,4 32 17 51 27 SE 1012,3 3,8 0,0
15.12.2018 19:00:00 0,0 -1,8 -1,0 2,8 9,5 32 17 52 28 SE 1013,5 6 0,0
15.12.2018 18:00:00 -0,2 -2,6 -1,1 2,8 9,5 32 17 66 35 SE 1014,8 7 0,0
15.12.2018 17:00:00 0,0 -3,7 -0,4 2,9 9,5 34 18 54 29 SE 1015,9 7 0,0
15.12.2018 16:00:00 0,5 -4,0 0,5 2,9 9,5 30 16 48 26 SE 1017,5 13 0,0
15.12.2018 15:00:00 0,5 -3,8 0,7 2,9 9,5 26 14 45 24 SE 1018,4 12 0,0
15.12.2018 14:00:00 0,5 -4,2 0,5 2,9 9,5 28 15 56 30 SE 1019,6 11 0,0
15.12.2018 13:00:00 0,4 -4,1 0,4 2,9 9,6 29 16 47 26 SSE 1021,1 12 0,0
15.12.2018 12:00:00 -0,1 -3,7 0,2 2,9 9,6 18 10 34 18 SE 1022,0 10 0,0
15.12.2018 11:00:00 -0,4 -3,9 -1,3 2,9 9,6 16 9 30 16 SE 1022,8 10 0,0
15.12.2018 10:00:00 -1,8 -4,6 -3,5 2,9 9,6 14 8 22 12 SE 1023,0 10 0,0
15.12.2018 09:00:00 -3,6 -6,1 -4,7 2,9 9,6 11 6 16 9 ESE 1023,4 11 0,0
15.12.2018 08:00:00 -3,8 -6,3 -4,4 3,0 9,6 10 5 12 6 E 1023,5 12 0,0
15.12.2018 07:00:00 -3,0 -5,6 -4,5 3,0 9,7 6 3 8 4 ESE 1023,9 13 0,0
15.12.2018 06:00:00 -2,5 -5,8 -4,9 3,1 9,7 5 3 11 6 SE 1024,2 17 0,0
15.12.2018 05:00:00 -1,3 -5,0 -2,0 3,1 9,7 9 5 18 10 SSE 1024,3 18 0,0
15.12.2018 04:00:00 -1,0 -5,1 -1,6 3,1 9,7 11 6 18 10 SE 1024,6 15 0,0
15.12.2018 03:00:00 -0,9 -4,6 -2,0 3,1 9,7 6 3 13 7 SSE 1025,1 12 0,0
15.12.2018 02:00:00 -0,9 -4,3 -1,5 3,2 9,7 5 3 10 5 ESE 1025,0 9 0,0
15.12.2018 01:00:00 -0,3 -3,7 -0,6 3,1 9,7 2 1 7 4 SE 1025,2 9 0,0
15.12.2018 00:00:00 0,0 -3,7 -0,7 3,2 9,8 0 0 9 5 N 1025,6 10 0,0
14.12.2018 23:00:00 -0,3 -3,5 -0,6 3,1 9,7 3 1 6 4 ENE 1025,2 8 0,0
14.12.2018 22:00:00 -0,2 -3,6 -0,8 3,1 9,7 4 2 6 3 SSE 1024,8 9 0,0
14.12.2018 21:00:00 -0,3 -3,5 -0,8 3,1 9,8 4 2 9 5 ESE 1024,9 9 0,0
14.12.2018 20:00:00 0,2 -3,5 -0,3 3,1 9,8 6 3 10 6 ENE 1024,8 11 0,0
14.12.2018 19:00:00 0,4 -3,7 -0,1 3,1 9,8 8 5 11 6 SE 1024,9 11 0,0
14.12.2018 18:00:00 0,7 -4,0 0,4 3,1 9,8 9 5 18 10 E 1024,7 12 0,0
14.12.2018 17:00:00 0,7 -3,6 0,3 3,1 9,8 9 5 15 8 ENE 1024,7 13 0,0
14.12.2018 16:00:00 0,4 -2,7 0,3 3,1 9,8 2 1 10 5 N 1024,4 9 0,0
14.12.2018 15:00:00 0,6 -2,8 0,6 3,1 9,8 3 2 12 7 ENE 1023,8 7 0,0
14.12.2018 14:00:00 1,0 -1,9 1,7 3,1 9,9 9 5 20 11 E 1023,0 10 0,0
14.12.2018 13:00:00 1,0 -1,6 1,3 3,1 9,9 10 6 16 9 ENE 1022,7 7 0,0
14.12.2018 12:00:00 0,4 -1,2 0,7 3,0 9,9 10 5 13 7 ENE 1022,9 5 0,0
14.12.2018 11:00:00 0,1 -1,8 -0,2 3,1 9,9 8 4 16 9 NE 1023,3 6 0,0
14.12.2018 10:00:00 -0,5 -1,5 -0,7 3,1 9,9 10 6 26 14 NNE 1023,2 4,5 0,0
14.12.2018 09:00:00 -0,8 -1,8 -0,9 3,1 9,9 12 7 20 11 NNE 1022,9 5 0,0
14.12.2018 08:00:00 -0,9 -1,6 -1,6 3,1 9,9 11 6 21 12 NNE 1022,3 5 0,0
14.12.2018 07:00:00 -1,7 -2,3 -3,1 3,1 10,0 12 6 17 9 N 1022,0 4,9 0,0
14.12.2018 06:00:00 -2,6 -3,3 -3,4 3,1 10,0 13 7 16 9 N 1021,4 4,4 0,0
14.12.2018 05:00:00 -2,7 -3,7 -3,6 3,2 10,0 11 6 18 10 N 1021,2 6 0,0
14.12.2018 04:00:00 -2,5 -3,8 -3,5 3,2 10,0 13 7 18 10 NNE 1021,0 6 0,0
14.12.2018 03:00:00 -2,4 -3,8 -3,2 3,3 10,0 10 5 18 10 NNE 1021,3 8 0,0
14.12.2018 02:00:00 -1,4 -3,3 -2,0 3,3 10,0 14 7 18 10 NNE 1021,0 10 0,0
14.12.2018 01:00:00 -1,4 -3,1 -2,0 3,3 10,0 10 5 18 10 NE 1021,0 11 0,0
14.12.2018 00:00:00 -1,1 -3,1 -1,7 3,4 10,0 13 7 21 11 NE 1020,6 12 0,0
13.12.2018 23:00:00 -1,0 -3,0 -1,5 3,4 10,0 16 9 21 12 NE 1020,4 12 0,0
13.12.2018 22:00:00 -0,7 -3,1 -1,5 3,5 10,1 12 6 22 12 ENE 1020,3 12 0,0
13.12.2018 21:00:00 -0,3 -3,0 -1,0 3,5 10,1 15 8 22 12 NE 1019,9 14 0,0
13.12.2018 20:00:00 0,1 -3,1 -0,6 3,6 10,1 16 9 26 14 ENE 1019,6 16 0,0
13.12.2018 19:00:00 0,8 -3,3 0,0 3,7 10,1 20 11 27 14 ENE 1019,1 19 0,0
13.12.2018 18:00:00 1,0 -2,9 0,2 3,7 10,1 17 9 26 14 ENE 1018,8 21 0,0
13.12.2018 17:00:00 1,5 -2,6 0,7 3,8 10,1 16 9 31 17 NE 1018,4 23 0,0
13.12.2018 16:00:00 2,2 -2,1 2,5 3,8 10,1 22 12 41 22 ENE 1018,0 19 0,0
13.12.2018 15:00:00 2,9 -2,2 4,4 3,7 10,1 27 15 42 23 ENE 1017,6 16 0,0

tt = Température de l'air
td = dewpoint
tt 5cm = Température de l'air 5cm
tt -20cm = Température de l'air -20cm
tt -100cm = Température de l'air -100cm
ff = Vitesse du vent
fx = gusts
dd = Direction du vent
ppp = reduced air pressure
vv = visibility
rr = Quantités de précipitations

stations d'obs. à proximité